Regional Weather Roundup
Issued by NWS Wakefield, VA

Home | Current Version | Previous Version | Graphics & Text | Print | Product List | Glossary On
Versions: 1 2 3 4 5 6 7 8 9 10 11 12 13 14 15 16 17 18 19 20 21 22 23 24 25 26 27 28 29 30 31 32 33 34 35 36 37 38 39 40 41 42 43 44 45 46 47 48 49 50
000
ASUS41 KAKQ 230615
RWRAKQ

REGIONAL WEATHER ROUNDUP
NATIONAL WEATHER SERVICE WAKEFIELD VA
200 AM EDT SUN APR 23 2017

Note: "fair" indicates few or no clouds below 12,000 feet with no
significant weather and/or obstructions to visibility. * = Denotes
station may not report precipitation (e.g., rain,snow,etc.),
thunder or fog.

VAZ042-051-052>054-056-230700-
NORTHERN VIRGINIA

CITY           SKY/WX    TMP DP  RH WIND       PRES   REMARKS
WASH NATIONAL  CLOUDY    51  48  89 N9        30.04F
DULLES         CLOUDY    49  47  93 N5        30.05S
FORT BELVOIR   PTCLDY    49  46  89 CALM      30.04F
QUANTICO       CLOUDY    52  48  86 N5        30.05F
FREDERICKSBRG* CLOUDY    51  51 100 NW3       30.06R
STAFFORD*      CLOUDY    48  48 100 CALM      30.08F
WARRENTON      CLOUDY    48  45  89 CALM      30.05R
CULPEPER*      CLOUDY    49  47  93 N3        30.06S
MANASSAS*        N/A     48  47  96 N6        30.06S
LEESBURG*      MOCLDY    48  48 100 N3        30.07S
WINCHESTER     CLOUDY    43  43 100 CALM      30.06S FOG
FRONT ROYAL*   CLOUDY    45  45 100 CALM      30.05S
LURAY*         FOG       46  46 100 CALM      30.05F VSB 1
$$

VAZ048-049-060>072-079>083-230700-
CENTRAL AND SOUTH CENTRAL VIRGINIA

CITY           SKY/WX    TMP DP  RH WIND       PRES   REMARKS
RICHMOND       RAIN      52  51  97 N5        30.04R FOG
CHESTERFIELD*  CLOUDY   N/A N/A N/A N5        30.05R
PETERSBURG*    RAIN      52  50  93 N7        30.04F
HANOVER        LGT RAIN  51  50  96 N6        30.05R
TAPPAHANNOCK*  LGT RAIN  53  53  99 N5        30.03S
QUINTON*       CLOUDY    53  53 100 NW6       30.04R
CHARLOTTSVILLE CLOUDY    51  49  92 CALM      30.05R
GORDONSVILLE*  CLOUDY    49  47  92 CALM      30.05R
ORANGE*        CLOUDY    48  45  87 CALM      30.06R
LOUISA*        CLOUDY    54  52  94 CALM      30.04R
BUMPASS*       CLOUDY    50  49  97 CALM      30.06R
FARMVILLE*     LGT RAIN  50  50 100 N5        30.04S
CREWE*         CLOUDY    49  49 100 CALM      30.02F
FORT PICKETT*  CLOUDY   N/A N/A N/A N6        30.02F
CHASE CITY*    CLOUDY    50  48  94 N6        30.01F
CLARKSVILLE*   CLOUDY    52  52 100 N6        30.02S
SOUTH HILL*    CLOUDY    52  52 100 N7        30.06F
LAWRENCEVILLE* CLOUDY    53  52  97 N5        30.02S
EMPORIA*       RAIN      54  52  94 N6        30.02S
$$

VAZ088>098-230700-
SOUTHEAST VIRGINIA

CITY           SKY/WX    TMP DP  RH WIND       PRES   REMARKS
NORFOLK        CLOUDY    57  52  83 NE12      29.98S
VIRGINIA BEACH CLOUDY    54  51  90 NE9       29.97F
NORFOLK NAVAL  CLOUDY    57  52  83 NE9       30.01R
WEST POINT*    CLOUDY    54  52  95 N6        30.04R
SALUDA*        CLOUDY    54  51  90 N9        30.01S
NEWPORT NEWS   CLOUDY    56  54  93 NW3       30.01R
LANGLEY AFB    CLOUDY    56  54  93 NE13      29.99R
FORT EUSTIS    RAIN      55  52  88 N7        29.99R
WILLIAMSBURG*  CLOUDY    55  55 100 NW3       30.04R
HR EXEC AP*    CLOUDY    55  50  82 NW5       30.00R
FRANKLIN*      RAIN      54  53  95 NW3       30.01F
US460-WAKEFLD  LGT RAIN  54  54 100 N6        30.02F
$$

VAZ020-022-025-037-045-230700-
WEST CENTRAL AND SOUTHWEST VIRGINIA

CITY           SKY/WX    TMP DP  RH WIND       PRES   REMARKS
STAUNTON*      DRIZZLE   46  45  93 CALM      30.08S
WAYNESBORO*    CLOUDY    46  46  99 CALM      30.05F
HOT SPRINGS VA FOG       37  37 100 E10G16    30.01R VSB<1/4
LYNCHBURG      LGT RAIN  50  48  93 NE8       30.05S
DANVILLE       LGT RAIN  50  50 100 NE8       30.02F
SOUTH BOSTON*  CLOUDY    50  49  95 E3        30.02F
MARTINSVILLE   RAIN      49  48  94 NE5       30.05S
ROANOKE        LGT RAIN  50  49  96 CALM      30.04F
BLACKSBURG     LGT RAIN  48  46  94 N7        30.04R
DUBLIN*        CLOUDY    50  47  89 NE9       30.00R
MARION*        CLOUDY    55  54  96 CALM      29.97S
HILLSVILLE*    CLOUDY    51  51 100 CALM      29.94F
RICHLANDS*     FOG       47  47 100 NE7       29.94S VSB 1/4
WISE*          FOG       46  46 100 CALM      29.95F VSB<1/4
ABINGDON*      CLOUDY    55  55  99 CALM      29.92F
$$

MDZ021>025-VAZ099-100-230700-
SOUTHERN MARYLAND AND THE DELMARVA PENINSULA

CITY           SKY/WX    TMP DP  RH WIND       PRES   REMARKS
PATUXENT RIVER CLOUDY    54  50  86 N10       30.03R
BAY BRIDGE APT MOCLDY    52  46  82 NE7       30.04S
LEONARDTOWN    CLOUDY    52  48  87 CALM      30.04F
DOVER          PTCLDY    47  47 100 N12       30.03R
GEORGETOWN     CLOUDY    53  51  93 MISG      30.03R FOG
EASTON         CLEAR     51  49  92 NE7       30.07S
CAMBRIDGE      CLOUDY    54  50  87 N7        30.02F
SALISBURY      CLOUDY    52  52 100 N6        30.01S
OCEAN CITY     CLOUDY    52  50  93 N5        30.01S
WALLOPS ISLAND CLOUDY    52  51  97 N7        30.01F
ACCOMACK*      CLOUDY    53  50  92 NE7       30.00S
$$

NCZ012>017-030>032-230700-
NORTH CENTRAL AND EASTERN NORTH CAROLINA

CITY           SKY/WX    TMP DP  RH WIND       PRES   REMARKS
ROANOKE RAPIDS RAIN      54  54 100 NE7       29.99F
RALEIGH        CLOUDY    55  54  96 N7        29.99S FOG
ELIZABETH CITY CLOUDY    57  55  93 N13       29.97R
AHOSKIE*         N/A     55  54  95 NE5       29.98F
EDENTON*       CLOUDY    57  54  88 N3        29.98R
CURRITUCK*     LGT RAIN  56  56  99 N13       29.97S
KILL DEVIL HLS CLOUDY    55  55 100 N10       29.92F
MANTEO         CLOUDY    56  55  96 NE14G23   29.93S
CAPE HATTERAS  CLOUDY    64  59  83 VRB6      29.91F HAZE
TARBORO*       NOT AVBL
GOLDSBORO      LGT RAIN  59  59 100 NE7       29.95R FOG
WASHINGTON     CLOUDY    56  55  94 N8        29.96R
GREENVILLE     CLOUDY    57  55  94 NE13      29.98S
NEW BERN       CLOUDY    60  58  92 NE10      29.94F
WILMINGTON     PTCLDY    70  66  87 NW5       29.90R
$$

VAZ048-230700-
ELSEWHERE

CITY           SKY/WX    TMP DP  RH WIND       PRES   REMARKS
HARRISBURG PA  CLOUDY    47  38  71 N5        30.08R
BALTIMORE      CLOUDY    50  47  89 N5        30.05S
ANNAPOLIS      MOCLDY    54  50  86 N6        30.04R
ANDREWS AFB    CLOUDY    48  47  94 N7        30.03F
PHILADELPHIA   MOCLDY    48  37  65 N10       30.06R
HENDERSON NC   RAIN      50  49  96 N9        30.01S
GREENSBORO     LGT RAIN  51  51 100 NE8       30.00F
ROCKY MOUNT    CLOUDY    58  56  93 NE9       29.96F
$$

VAZ100-230700-
MARINE

STATION/POSITION TIME  TEMP    WIND        PRES    WAVE   SWELL
                       AIR SEA DIR/SP/G            HT/PER HT/PER
                 (UTC) (F)     (DEG/KT/KT) (MB)    (FT/S) (FT/S)
CAPE MAY NJ      0548   52 55   20/  4/  6 1016.3R
LEWES DE         0548   54 54   10/ 15/ 18 1016.5R
15NM E FENWICK I 0550   51 52  350/  8/ 10 1016.6F   5/11   5/11
OCEAN-CITY-INLET 0542   52 56   40/  5/  8 1016.6F
WACHAPREAGUE VA  0548   53 64   20/  5/  7 1015.2F
THOMAS POINT MD  0600   54 59   10/ 13/ 16   N/A
GOOSES REEF MD   0600   54 54   30/ 12/ 14 1017.6    2/ 3
COVE POINT MD    0548   56      40/ 13/ 17 1017.5R
SOLOMONS ISLAND  0548   54 62  330/  4/  6   N/A
BISHOPS HEAD MD  0548   54 63   30/ 12/ 14 1016.9R
PINEY POINT MD   0548          360/  6/  7   N/A
POTOMAC MD       0600   56 62   40/ 12/ 14 1015.9    1
CAMBRIDGE MD     0548   54 65   10/  9/ 11 1015.9F
LEWISETTA VA     0548   55 64   40/  8/ 11 1016.5R
RAPPAHANNOCK LGT 0548           40/ 15/ 17 1016.1F
STINGRAY PT      0550   56      40/ 16/ 19 1015.8S
YORK RVR RNG VA  0548   57      60/ 12/ 14 1015.1R
YORKTOWN VA      0548   57 64   30/  8/  9 1015.5R
JAMESTOWN VA     0600   56 69  330/  8/ 12   N/A     0
DOMINION TERM VA 0548   57      40/  4/  5 1015.9R
KIPTOPEKE VA     0548      61   30/  5/  9   N/A
CHES BAY BRIDGE  0548   56 62   50/ 15/ 17 1015.0R
CAPE HENRY VA    0548   54      40/ 15/ 18   N/A
WILLOUBY STN VA  0548   57      40/ 12/ 14 1016.6R
S CRANEY ISL VA  0548   57      40/  8/ 12 1015.3R
CAPE HENRY BUOY  0542      57                N/A     5/ 6   2/13
1ST LANDING BUOY 0600   56 61              1015.8    3/ 4
CAPE CHARLES BUO 0551      57                N/A     4/13   2/13
64NM E OF VA BCH 0550   54 56  360/ 17/ 21 1013.7F   6/12   3/12
DUCK PIER NC     0548   55 62   20/ 23/ 25 1013.3F
44100 DUCK FRF   0535      59                N/A     6/ 6   2/12
44056 DUCK FRF   0530      60                N/A     6/ 6   2/13
OREGON INLET NC  0542   56 73   10/ 11/ 15 1013.2F
HATTERAS NC      0548   63 71   10/  6/ 11 1012.7F
DIAMOND SHLS NC  0550   68 75  350/  8/ 10 1012.6F   4/ 5   3/ 5
CAPE LOOKOUT NC  0600   70     290/  7/  8 1012.4F
$$



USA.gov is the U.S. government's official web portal to all federal, state and local government web resources and services.